Terminal Aerodrome Forecast
Issued by NWS

Home | Current Version | Previous Version | Text Only | Print | Product List | Glossary On
Versions: 1 2 3 4 5 6 7 8 9 10 11 12 13
000
FTUS43 KIND 292325
TAFLAF
TAF
KLAF 292325Z 3000/3024 17006KT P6SM VCTS BKN035CB
     FM300100 20002KT P6SM VCSH BKN040
     FM300600 19002KT 4SM BR BKN045
     FM301300 23005KT P6SM BKN040=

USA.gov is the U.S. government's official web portal to all federal, state and local government web resources and services.